Showing default

FLOCK 4G 28, 62634

Orbit data source: Space-Track

FLOCK 4G 28, 62634 is a payload satellite owned by Planet (US) in SSO that was launched on Tue, 14 Jan 2025 UTC via an FALCON 9 launch vehicle from the Air Force Western Test Range (AFWTR). Payload-class satellites include a variety of spacecraft equipped with specific instruments for various scientific and technological missions. These include communications satellites like Starlink; space stations such as the ISS; scientific satellites like the Hubble; Earth observation satellites from companies like Planet Labs, Umbra, and HawkEye 360; GPS; miniature CubeSats for education and research; and military/defense satellites.

Loading next visibility...
Identifier
62634, 2025-009AB
Orbit
SSO
Country
Flag of USUS
Related business
Manufacturer
Planet
Mission
Partially operational Commercial Imaging
Bus & Motor
CUBESAT 3U, Unknown motor
Mass
5.7 kg wet, 5.7 kg dry
Launch date (UTC)
2025-01-14 (2 years ago)
Launch vehicle
FALCON 9
Launch site
Air Force Western Test Range (AFWTR)
Object type
Payload
Rocket body
Debris
Shape & HBR
Box + 2 Pan, 1.0 m
Radar Cross Section
0.072 m², Medium (>0.1 m² and < 1m²)

Expand to show TLE details & history
Last TLE update: 10 hours ago

TLE from 10 hours ago
0 FLOCK 4G 28
1 62634U 25009AB  26238.05154360  .00008763  00000-0  25302-3 0  9991
2 62634  97.4005 322.9058 0003162  78.6414 281.5185 15.35907554 89808
Epoch: 2026-08-26T01:14Z
TLE epoch observation values (Epoch: 2026-08-26T01:14:13.367Z)
Latitude
0.00002°
Longitude
-29.95999°
Altitude
460.907 km
Speed
7.636 km/s
True Right ascension
21h 31m 37s
True Declination
0° 00' 00"
Sunlit
Object was in full shadow at epoch
Visualization orbit readout
Latitude
Unknown
Longitude
Unknown
Altitude
Unknown
Speed
Unknown
Apparent Right ascension
Unknown
Apparent Declination
Unknown
Sunlit
N/A
Visualization observer readout
Local Sidereal Time
02:59:52
Azimuth
Unknown
Elevation
Unknown
Doppler factor
Unknown
Orbital elements
Apogee altitude
457.331 km
Perigee altitude
453.01 km
Semi-major axis
6,833.308 km
Eccentricity
0.00032
Inclination
97.4005°
RAAN
322.9058°
Arg. of periapsis
78.6414°
True anomaly
281.48299°
Mean anomaly
281.5185°
Eccentric anomaly
281.50075°
Mean motion
3.84235 °/min
Orbital period
93.69 mins
BSTAR
0.00025302
Loading maneuver chart data...
Computing Atmospheric mass density...
Loading historical data...
Loading historical data...
Loading historical data...
Loading historical data...
Loading historical data...
Loading historical data...
Loading historical data...

Documentation

Showing up to 5 results
|